Location: Michelbach Markt
(48.1000°N, 15.7500°E)
Time: 04:56:21
(UTC+01:00)

BlueWalker 3 - Visible Passes

Search period start: 07 December 2022 00:00
Search period end: 17 December 2022 00:00
Orbit: 501 x 518 km, 53.2° (Epoch: 06 December)

Date Brightness Start Highest point End Pass type
(mag) Time Alt. Az. Time Alt. Az. Time Alt. Az.
07 Dec 2.3 17:07:32 10° WNW 17:11:21 47° NNE 17:14:16 16° E visible
07 Dec 3.1 18:46:17 10° WNW 18:49:06 42° W 18:49:06 42° W visible
08 Dec 2.3 16:49:08 10° WNW 16:52:58 48° NNE 16:56:45 10° E visible
08 Dec 2.4 18:27:53 10° WNW 18:31:43 54° SW 18:31:50 54° SSW visible
09 Dec 2.3 16:30:44 10° WNW 16:34:34 49° NNE 16:38:21 10° E visible
09 Dec 2.6 18:09:29 10° WNW 18:13:18 51° SW 18:14:45 32° SSE visible
10 Dec 2.8 17:51:05 10° WNW 17:54:52 49° SW 17:57:54 15° SE visible
11 Dec 3.0 17:32:40 10° WNW 17:36:26 46° SW 17:40:09 10° SE visible
12 Dec 3.2 17:14:16 10° WNW 17:18:00 44° SW 17:21:42 10° SE visible
13 Dec 3.4 16:55:51 10° WNW 16:59:33 41° SW 17:03:13 10° SSE visible
14 Dec 3.6 16:37:26 10° WNW 16:41:06 39° SW 16:44:44 10° SSE visible
